Flag Weather past 2 weeks in Aurich, Lower Saxony, Germany

Now
45 °F

Quite cool.


Feels Like: 41 °F
Forecast: 40 / 52 °F
Wind: 6 mph from Southeast

Location: Wittmundhaven

Current Time: Nov 23, 2014 at 8:28:06 AM

Latest Report: Nov 23, 2014 at 7:20 AM


Visibility: 3 mi

Pressure: 30.07 "Hg

Humidity: 93%

Dew point: 43 °F

Location of AurichLocation

Historic Weather in Aurich — Graph

°F

Aurich temperature yesterday

Maximum temperature yesterday: 43 °F (at 2:20 PM)
Minimum temperature yesterday: 37 °F (at 12:20 AM)
Average temperature yesterday: 40 °F

Past Weeks' High & Low Weather Summary

 TemperatureHumidityPressure
High54 °F (Nov 8, 1:20 PM)100% (Nov 10, 8:20 AM)30.39 "Hg (Nov 10, 8:20 AM)
Low30 °F (Nov 21, 3:20 AM)50% (Nov 11, 1:20 PM)29.53 "Hg (Nov 16, 12:20 PM)
Average46 °F90%29.89 "Hg
* Reported Nov 8 7:20 AM — Nov 23 7:20 AM, Aurich, Weather by CustomWeather, © 2014

Note: Actual official high and low records may vary slightly from our data, if they occured in-between our weather recording intervals... More about our weather records

Advertising

Aurich weather history for previous 24 hours

 ConditionsComfort  
Time TempWeatherWind HumidityBarometerVisibility
7:20 AM
Nov 23
45 °FQuite cool.6 mph93%30.07 "Hg3 mi
6:20 AM43 °FQuite cool.6 mph93%30.07 "Hg3 mi
5:20 AM43 °FQuite cool.3 mph93%30.07 "Hg4 mi
4:20 AM43 °FQuite cool.5 mph93%30.07 "Hg3 mi
3:20 AM43 °FQuite cool.5 mph93%30.09 "Hg4 mi
2:20 AM43 °FQuite cool.5 mph93%30.09 "Hg4 mi
1:20 AM43 °FQuite cool.3 mph93%30.09 "Hg4 mi
12:20 AM43 °FQuite cool.5 mph87%30.09 "Hg4 mi
11:20 PM
Nov 22
43 °FQuite cool.7 mph87%30.09 "Hg4 mi
10:20 PM43 °FQuite cool.6 mph87%30.07 "Hg4 mi
9:20 PM43 °FQuite cool.8 mph87%30.07 "Hg4 mi
8:20 PM43 °FQuite cool.8 mph87%30.07 "Hg4 mi
7:20 PM43 °FQuite cool.8 mph87%30.07 "Hg4 mi
6:20 PM43 °FQuite cool.8 mph87%30.07 "Hg4 mi
5:20 PM43 °FQuite cool.8 mph87%30.09 "Hg4 mi
4:20 PM43 °FQuite cool.9 mph87%30.07 "Hg4 mi
3:20 PM43 °FQuite cool.10 mph87%30.07 "Hg4 mi
2:20 PM43 °FQuite cool.9 mph87%30.09 "Hg4 mi
1:20 PM41 °FQuite cool.12 mph87%30.07 "Hg3 mi
12:20 PM41 °FQuite cool.12 mph87%30.09 "Hg4 mi
11:20 AM41 °FQuite cool.12 mph87%30.09 "Hg3 mi
10:20 AM41 °FQuite cool.12 mph81%30.12 "Hg4 mi
9:20 AM39 °FChilly.12 mph87%30.12 "Hg4 mi
8:20 AM39 °FChilly.13 mph87%30.12 "Hg4 mi
Weather by CustomWeather, © 2014

See weather overviewHow to use our weather pages